Regional Weather Roundup
Issued by NWS

Home | Current Version | Previous Version | Text Only | Print | Product List | Glossary On
Versions: 1 2 3 4 5 6 7 8 9 10 11 12 13 14 15 16 17 18 19 20 21 22 23 24 25 26 27 28 29 30 31 32 33 34 35 36 37 38 39 40 41 42 43 44 45 46 47 48 49 50
000
ASUS43 KOAX 271310
RWRNE

WEATHER ROUNDUP FOR NEBRASKA
NATIONAL WEATHER SERVICE OMAHA NE
700 AM CST SAT DEC 27 2014

NOTES: SATELLITE DATA IS BEING USED TO AUGMENT CLOUD COVER ABOVE
       12000 FEET.
       "FAIR" INDICATES FEW OR NO CLOUDS BELOW 12,000 FEET WITH NO
       SIGNIFICANT WEATHER AND/OR OBSTRUCTIONS TO VISIBILITY.

  * THESE STATIONS DO NOT REPORT WEATHER SUCH AS RAIN...SNOW OR FOG.

NEZ001>004-019>022-054>056-271400-
NEBRASKA PANHANDLE

CITY           SKY/WX    TMP DP  RH WIND       PRES   REMARKS
SCOTTSBLUFF    PTCLDY     0  -4  83 NW12      30.15R WCI -17
ALLIANCE       PTCLDY    -4  -7  87 W7        30.12R WCI -18
CHADRON        PTCLDY     7   3  84 CALM      30.15R
KIMBALL        PTCLDY     5  -1  77 NW8       30.08R WCI  -8
SIDNEY         PTCLDY     0  -5  79 W15       30.12R WCI -19
$$

NEZ057>060-069>072-079>082-271400-
SOUTHWEST NEBRASKA

CITY           SKY/WX    TMP DP  RH WIND       PRES   REMARKS
NORTH PLATTE   PTCLDY     1  -2  87 NW7       30.18R WCI -12
IMPERIAL       CLOUDY    13   8  81 W8        30.18R WCI   2
LEXINGTON      PTCLDY     2  -1  85 W7        30.21R WCI -10
MCCOOK         CLOUDY     7   4  87 SW10      30.23R WCI  -8
OGALLALA       CLEAR     10   8  92 W6        30.16S WCI   0
$$

NEZ005>010-023>029-035>040-094-271400-
NORTH CENTRAL NEBRASKA

CITY           SKY/WX    TMP DP  RH WIND       PRES   REMARKS
VALENTINE      CLEAR      3   0  87 W8        30.16R WCI -10
AINSWORTH      PTCLDY     6   3  88 W7        30.15S WCI  -6
BROKEN BOW     PTCLDY    13   8  81 NW9       30.15F WCI   1
O`NEILL        CLEAR     11  10  96 W6        30.17S WCI   2
ORD            CLEAR      7   4  87 NW7       30.17S WCI  -5
THEDFORD       PTCLDY     6   3  88 W7        30.16S WCI  -6
$$

NEZ041-046>049-061>064-073>077-083>087-271400-
SOUTH CENTRAL NEBRASKA

CITY           SKY/WX    TMP DP  RH WIND       PRES   REMARKS
GRAND ISLAND   PTCLDY     7   4  87 W10       30.23R WCI  -8
AURORA         PTCLDY    13  10  90 NW9       30.20R WCI   1
HASTINGS       PTCLDY    10   7  87 W8        30.21R WCI  -2
HEBRON         PTCLDY    17  13  82 NW9       30.24R WCI   6
HOLDREGE       PTCLDY    10   6  87 W3        30.21R
KEARNEY *      PTCLDY     9   3  78 W7        30.22R WCI  -3
YORK           CLEAR     16  12  86 NW10      30.22R WCI   3
$$

NEZ011>018-030>034-042>045-271400-
NORTHEAST NEBRASKA

CITY           SKY/WX    TMP DP  RH WIND       PRES   REMARKS
NORFOLK        CLEAR     13  10  88 W10       30.18R WCI   0
ALBION         PTCLDY    12   8  84 NW9       30.18S WCI  -1
BLAIR          PTCLDY    22  18  85 NW10G20   30.14R WCI  11
COLUMBUS *     CLEAR     16   7  67 NW15      30.19R WCI   1
FREMONT        CLEAR     17  14  87 NW12      30.18R WCI   5
TEKAMAH        CLEAR     21  16  81 NW15      30.18R WCI   8
WAYNE          FAIR      13  10  87 NW8       30.19R WCI   2
$$

NEZ050>053-065>068-078-088>093-271400-
SOUTHEAST NEBRASKA

CITY           SKY/WX    TMP DP  RH WIND       PRES   REMARKS
LINCOLN        CLEAR     20  15  81 NW14      30.22R WCI   7
OMAHA EPPLEY   PTCLDY    23  19  85 NW13      30.18R WCI  11
BEATRICE       CLEAR     20  16  86 NW15      30.21R WCI   6
FALLS CITY     CLOUDY    27  21  78 NW16G22   30.20R WCI  15
NEBRASKA CITY  CLOUDY    24  22  90 N10G20    30.19R WCI  14
PLATTSMOUTH    MOCLDY    23  19  85 NW15      30.16S WCI  10
$$

NEZ044-045-051>053-067-271400-
OMAHA AREA

CITY           SKY/WX    TMP DP  RH WIND       PRES   REMARKS
OMAHA EPPLEY   PTCLDY    23  19  85 NW13      30.18R WCI  11
BLAIR          PTCLDY    22  18  85 NW10G20   30.14R WCI  11
FREMONT        CLEAR     17  14  87 NW12      30.18R WCI   5
MILLARD        CLEAR     23  19  83 NW9       30.17S WCI  13
OFFUTT AFB     CLEAR     23  19  83 NW14      30.16R WCI  11
PLATTSMOUTH    MOCLDY    23  19  85 NW15      30.16S WCI  10
WAHOO          FAIR      19  14  83 NW14      30.17F WCI   5
$$


USA.gov is the U.S. government's official web portal to all federal, state and local government web resources and services.